Location: Gloden
(48.4833°N, 15.3167°E)
Time: 17:45:47
(UTC+00:00)

Aureole 3 Rocket - Pass Details

Date: 15 December 2019
Orbit: 398 x 1742 km, 82.5° (Epoch: 22 January)

Event Time Altitude Azimuth Distance (km) Brightness Sun altitude
Rises 06:00:03 0° 179° (S) 4,152 7.7 -7.0°
Reaches altitude 10° 06:03:09 10° 177° (S) 2,975 7.0 -6.5°
Maximum altitude 06:09:47 67° 97° (E) 927 4.3 -5.6°
Drops below altitude 10° 06:14:30 10° 16° (NNE) 2,132 5.7 -4.9°
Sets 06:16:26 0° 13° (NNE) 2,902 6.3 -4.6°
